This demonstration page uses our WeatherBlox Daily Observations layout. Learn more.

Left ArrowRight Arrow

39.95238, -75.16362

Hourly Observations for September 21, 2019

Temp ( °F °C ) Dew Point ( °F °C ) Humidity (%) Winds ( mph kmh ) Pressure ( in mb ) Visibility ( mi km ) Precip ( " mm )
12:54 am 00:54 Clear 63 17.2 53 11.7 70 70 WSW 6 9 30.23 1024 10 16 0.00 0.00
1:54 am 01:54 Clear 62 16.7 54 12.2 75 75 SW 7 11 30.24 1024 10 16 0.00 0.00
2:54 am 02:54 Clear 62 16.7 54 12.2 75 75 SW 5 7 30.24 1024 10 16 0.00 0.00
3:54 am 03:54 Clear 61 16.1 55 12.8 81 81 SW 6 9 30.23 1024 10 16 0.00 0.00
4:54 am 04:54 Clear 60 15.6 55 12.8 84 84 WSW 3 6 30.23 1024 10 16 0.00 0.00
5:54 am 05:54 Clear 60 15.6 56 13.3 86 86 WSW 6 9 30.23 1024 10 16 0.00 0.00
6:54 am 06:54 Mostly Sunny 60 15.6 56 13.3 86 86 W 5 7 30.24 1024 10 16 0.00 0.00
7:54 am 07:54 Partly Cloudy 61 16.1 57 13.9 87 87 SW 3 6 30.24 1024 10 16 0.00 0.00
8:54 am 08:54 Partly Cloudy 64 17.8 59 15 84 84 SW 7 11 30.25 1024 10 16 0.00 0.00
9:54 am 09:54 Partly Cloudy 68 20 60 15.6 76 76 SW 6 9 30.25 1024 10 16 0.00 0.00
10:54 am 10:54 Partly Cloudy 74 23.3 59 15 60 60 Calm 30.24 1024 10 16 0.00 0.00
11:54 am 11:54 Partly Cloudy 77 25 59 15 54 54 S 5 7 30.23 1024 10 16 0.00 0.00
12:54 pm 12:54 Partly Cloudy 81 27.2 51 10.6 35 35 SSW 10 17 30.21 1023 10 16 0.00 0.00
1:54 pm 13:54 Partly Cloudy 82 27.8 53 11.7 37 37 S 8 13 30.19 1022 10 16 0.00 0.00
2:54 pm 14:54 Partly Cloudy 84 28.9 53 11.7 34 34 SSE 7 11 30.17 1022 10 16 0.00 0.00
3:54 pm 15:54 Mostly Cloudy 85 29.4 53 11.7 33 33 SSE 6 9 30.16 1021 10 16 0.00 0.00
4:54 pm 16:54 Partly Cloudy 84 28.9 52 11.1 33 33 SSE 5 7 30.16 1021 10 16 0.00 0.00
5:54 pm 17:54 Partly Cloudy 83 28.3 54 12.2 37 37 SE 5 7 30.16 1021 10 16 0.00 0.00
6:54 pm 18:54 Partly Cloudy 79 26.1 55 12.8 44 44 S 5 7 30.16 1021 10 16 0.00 0.00
7:54 pm 19:54 Partly Cloudy 75 23.9 57 13.9 54 54 S 5 7 30.16 1021 10 16 0.00 0.00
8:54 pm 20:54 Partly Cloudy 73 22.8 58 14.4 59 59 S 9 15 30.18 1022 10 16 0.00 0.00
9:54 pm 21:54 Clear 71 21.7 61 16.1 71 71 SSW 7 11 30.19 1023 10 16 0.00 0.00
10:54 pm 22:54 Clear 70 21.1 62 16.7 76 76 SW 5 7 30.19 1023 10 16 0.00 0.00
11:54 pm 23:54 Clear 68 20 61 16.1 78 78 SSW 3 6 30.19 1022 10 16 0.00 0.00

Powered by AerisWeather